IRIDIUM 77 [-]

Last updated on Sept. 30, 2017, 12:33 a.m. UTC

1 25471U 98051E   17264.95799769  .16085492 -17218-5  16592-3 0  9999
2 25471  86.3803 338.5236 0054687 256.8796 102.6408 16.44499963  2314

Satellite is not in orbit.